Hettinger, ND

4:34 AM MDT on August 25, 2016 (GMT -0600)
Hettinger Municipal

Weather History for KHEI - January, 2013

Change the Weather History Date:

Saturday, January 5, 2013

  Actual Average Record
Temperature  
Mean Temperature 19 °F -  
Max Temperature 27 °F 27 °F 59 °F (2012)
Min Temperature 11 °F 5 °F -23 °F (2004)
Degree Days  
Heating Degree Days 46 49  
Month to date heating degree days 235 245  
Since 1 July heating degree days 3668 3824  
Moisture  
Dew Point 13 °F    
Average Humidity 75    
Maximum Humidity 88    
Minimum Humidity 62    
Precipitation  
Precipitation 0.00 in 0.01 in 0.04 in (2015)
Month to date precipitation T 0.06  
Year to date precipitation T 0.06  
Sea Level Pressure  
Sea Level Pressure 30.19 in    
Wind  
Wind Speed 14 mph (WNW)    
Max Wind Speed 29 mph    
Max Gust Speed 36 mph    
Visibility 10 miles    
Events      
T = Trace of Precipitation, MM = Missing Value Source: NWS Daily Summary

Daily Weather History Graph

Daily Weather History Graph

Search for Another Location

Airport or City:

Trip Planner

Search our weather history database for the weather conditions in past years. The results will help you decide how hot, cold, wet, or windy it might be!

Date:

Astronomy

Jan. 05, 2013 Rise Set
Actual Time 7:32 AM MST 4:20 PM MST
Civil Twilight 6:58 AM MST 4:54 PM MST
Nautical Twilight 6:20 AM MST 5:32 PM MST
Astronomical Twilight 5:44 AM MST 6:08 PM MST
Moon 12:29 AM MST (1/5) 11:21 AM MST (1/5)
Length of Visible Light 9h 56m
Length of Day
8h 48m
Last Quarter, 43% of the Moon is Illuminated
Jan 5
Last Quarter
Jan 11
New
Jan 18
First Quarter
Jan 26
Full
Feb 3
Last Quarter

Hourly Weather History & Observations

Time (MST) Temp. Windchill Dew Point Humidity Pressure Visibility Wind Dir Wind Speed Gust Speed Precip Events Conditions
12:53 AM 19.9 °F 7.9 °F 12.0 °F 71% 30.06 in 10.0 mi WNW 11.5 mph - N/A   Clear
1:53 AM 24.1 °F 11.0 °F 15.1 °F 69% 30.05 in 10.0 mi West 16.1 mph - N/A   Clear
2:53 AM 24.1 °F 11.0 °F 16.0 °F 71% 30.05 in 10.0 mi West 16.1 mph - N/A   Clear
3:53 AM 23.0 °F 11.7 °F 17.1 °F 78% 30.06 in 10.0 mi West 11.5 mph - N/A   Clear
4:53 AM 23.0 °F 11.1 °F 17.1 °F 78% 30.06 in 10.0 mi NW 12.7 mph - N/A   Clear
5:53 AM 24.1 °F 8.0 °F 16.0 °F 71% 30.07 in 10.0 mi WNW 25.3 mph 31.1 mph N/A   Clear
6:53 AM 19.0 °F 1.6 °F 12.0 °F 74% 30.11 in 10.0 mi NW 24.2 mph 33.4 mph N/A   Clear
7:53 AM 16.0 °F -1.3 °F 10.0 °F 77% 30.16 in 10.0 mi NW 20.7 mph - N/A   Partly Cloudy
8:53 AM 17.1 °F -1.4 °F 10.9 °F 77% 30.20 in 10.0 mi NW 25.3 mph 31.1 mph N/A   Clear
9:53 AM 19.0 °F 1.6 °F 12.9 °F 77% 30.22 in 10.0 mi NW 24.2 mph 32.2 mph N/A   Clear
10:53 AM 21.0 °F 6.2 °F 12.9 °F 71% 30.23 in 10.0 mi NW 18.4 mph - N/A   Clear
11:53 AM 25.0 °F 12.6 °F 14.0 °F 63% 30.21 in 10.0 mi NW 15.0 mph - N/A   Clear
12:53 PM 26.1 °F 13.6 °F 15.1 °F 63% 30.22 in 10.0 mi WNW 16.1 mph - N/A   Clear
1:53 PM 26.1 °F 13.1 °F 16.0 °F 66% 30.20 in 10.0 mi WNW 17.3 mph - N/A   Clear
2:53 PM 26.1 °F 14.0 °F 17.1 °F 69% 30.21 in 10.0 mi WNW 15.0 mph - N/A   Clear
4:53 PM 19.0 °F 8.2 °F 12.9 °F 77% 30.25 in 10.0 mi West 9.2 mph - N/A   Clear
5:53 PM 14.0 °F 2.0 °F 9.0 °F 80% 30.27 in 10.0 mi WNW 9.2 mph - N/A   Clear
6:53 PM 14.0 °F 5.1 °F 10.0 °F 84% 30.26 in 10.0 mi West 5.8 mph - N/A   Clear
7:53 PM 16.0 °F 2.9 °F 12.0 °F 84% 30.28 in 10.0 mi WNW 11.5 mph - N/A   Clear
8:53 PM 17.1 °F 5.0 °F 12.0 °F 81% 30.28 in 10.0 mi WNW 10.4 mph - N/A   Clear
9:53 PM 12.9 °F - 9.0 °F 84% 30.28 in 10.0 mi Calm Calm - N/A   Clear
10:53 PM 17.1 °F - 12.0 °F 81% 30.27 in 10.0 mi Calm Calm - N/A   Clear
11:53 PM 17.1 °F 10.0 °F 12.0 °F 81% 30.26 in 10.0 mi WNW 4.6 mph - N/A   Clear